Regional Weather Roundup
Issued by NWS

Home | Current Version | Previous Version | Text Only | Print | Product List | Glossary On
Versions: 1 2 3 4 5 6 7 8 9 10 11 12 13 14 15 16 17 18 19 20 21 22 23 24 25 26 27 28 29 30 31 32 33 34 35 36 37 38 39 40 41 42 43 44 45 46 47 48 49 50
920
ASUS43 KTOP 260459
RWRKS

WEATHER ROUNDUP FOR KANSAS
NATIONAL WEATHER SERVICE GOODLAND KS
1200 AM CDT MON JUN 26 2017

NOTE:  "FAIR" INDICATES FEW OR NO CLOUDS BELOW 12,000 FEET WITH NO
SIGNIFICANT WEATHER AND/OR OBSTRUCTIONS TO VISIBILITY.

KSZ001>006-013>018-027>032-041>047-260600-
NORTHWEST KANSAS

CITY           SKY/WX    TMP DP  RH WIND       PRES   REMARKS
GOODLAND       CLOUDY    58  58 100 S8        30.30S
HAYS           CLOUDY    57  56  96 CALM      30.28S
HILL CITY      PTCLDY    57  57 100 S3        30.29S
RUSSELL        PTCLDY    57  54  89 N3        30.26R
$$

KSZ061>065-074>080-084>089-260600-
SOUTHWEST KANSAS

CITY           SKY/WX    TMP DP  RH WIND       PRES   REMARKS
DODGE CITY     MOCLDY    61  58  90 E8        30.25S
ELKHART          N/A     63  50  63 E13         N/A
GARDEN CITY    CLOUDY    64  58  80 E13       30.26R
GREAT BEND     CLOUDY    59  56  89 NE6       30.26S
LIBERAL        CLOUDY    64  56  75 E13       30.24R
$$

KSZ066>073-081>083-090>101-260600-
SOUTHEAST KANSAS

CITY           SKY/WX    TMP DP  RH WIND       PRES   REMARKS
CHANUTE          N/A    N/A N/A N/A MISG      30.24S
COFFEYVILLE    CLEAR     65  56  72 NE5       30.23S
HUTCHINSON     CLOUDY    60  53  77 E5        30.25R
MEDICINE LODGE   N/A     62  58  86 E6        30.23R
NEWTON         CLOUDY    60  54  80 E5        30.26S
PARSONS        CLOUDY    63  58  83 CALM      30.25S
WICHITA INTL   CLOUDY    64  55  72 E8        30.23F
WICHITA JABRA  CLOUDY    60  55  83 E5        30.25R
WINFIELD       CLEAR     65  54  67 E9        30.23S
$$

KSZ007>012-019>026-033>040-048>060-102>105-260600-
NORTHEAST KANSAS

CITY           SKY/WX    TMP DP  RH WIND       PRES   REMARKS
CONCORDIA      CLOUDY    57  52  83 S9        30.24F
EMPORIA        CLOUDY    61  58  90 CALM      30.26R
LAWRENCE       CLEAR     53  53 100 NW3       30.26R
MANHATTAN      CLOUDY    58  57  97 CALM      30.25S
OLATHE IND     MOCLDY    58  54  86 CALM      30.26R
OLATHE EXE     MOCLDY    57  53  86 CALM      30.25R
SALINA         MOCLDY    63  56  78 CALM      30.25S
TOPEKA BILLARD CLEAR     58  57  97 CALM      30.26R
TOPEKA FORBES  MOCLDY    59  58  96 CALM      30.26R
$$




USA.gov is the U.S. government's official web portal to all federal, state and local government web resources and services.